Regional Weather Roundup
Issued by NWS

Home | Current Version | Previous Version | Text Only | Print | Product List | Glossary On
Versions: 1 2 3 4 5 6 7 8 9 10 11 12 13 14 15 16 17 18 19 20 21 22 23 24 25 26 27 28 29 30 31 32 33 34 35 36 37 38 39 40 41 42 43 44 45 46 47 48 49 50
000
ASUS45 KABQ 240810
RWRNM
NEW MEXICO REGIONAL WEATHER ROUNDUP
NATIONAL WEATHER SERVICE ALBUQUERQUE NM
100 AM MST FRI NOV 24 2017

NOTE: "FAIR" MEANS FEW OR NO CLOUDS BELOW 12,000 FEET AGL WITH NO
       SIGNIFICANT WEATHER OR OBSTRUCTIONS TO VISION.

      THIS PRODUCT IS RELEASED AS TWO VERSIONS.  ONE VERSION NEAR
      THE TOP OF THE HOUR CONTAINING PRELIMINARY DATA FROM ALBUQUERQUE
      AND OTHER STATIONS.  A FINAL VERSION WITH ADDITIONAL DATA IS
      ISSUED ABOUT 10 MINUTES AFTER THE HOUR.

NMZ501-503-504-510>518-240900-
NORTHWEST PLATEAU/NORTHCENTRAL MOUNTAINS

CITY           SKY/WX    TMP DP  RH WIND       PRES   REMARKS
FARMINGTON     FAIR      29  23  78 E8        30.18F WCI  21
LOS ALAMOS     FAIR      50  27  41 W3        30.21F
SANTA FE       FAIR      34  27  75 N3        30.17F
TAOS           FAIR      29  22  75 N8        30.23F WCI  21
ANGEL FIRE     FAIR      39  26  58 CALM      30.23F

$$
NMZ402-403-502-505>509-240900-
WESTCENTRAL MOUNTAINS/SOUTHWEST MOUNTAINS

CITY           SKY/WX    TMP DP  RH WIND       PRES   REMARKS
GALLUP         FAIR      29  19  66 E3        30.24F
GRANTS         FAIR      30  20  66 N6        30.24F WCI  24
SILVER CITY    FAIR      42  26  53 N10       30.17F

$$
NMZ407-409-411-412-240900-
SOUTHERN DESERTS

CITY           SKY/WX    TMP DP  RH WIND       PRES   REMARKS
DEMING         FAIR      41  24  51 W6        30.13F
LAS CRUCES     FAIR      44  23  44 NW3       30.13F
HOLLOMAN AFB   FAIR      41  24  51 N3        30.13F
ALAMOGORDO     FAIR      48  27  43 E3        30.12F
T OR C         FAIR      50  27  40 W10       30.13F

$$
NMZ519>523-240900-
CENTRAL VALLEYS/CENTRAL HIGHLANDS

CITY           SKY/WX    TMP DP  RH WIND       PRES   REMARKS
ALBUQUERQUE    FAIR      48  30  49 CALM      30.16F
DOUBLE EAGLE   FAIR      40  25  55 NW9       30.18F WCI  34
MORIARTY ARPT  FAIR      31  25  77 CALM      30.18F
CLINES CORNERS FAIR      42  25  50 NW18      30.17F
BELEN          FAIR      37  28  70 NW8       30.16S WCI  30
SOCORRO        FAIR      40  27  59 NW3       30.15S

$$
NMZ524>526-539-540-240900-
SOUTHCENTRAL MOUNTAINS

CITY           SKY/WX    TMP DP  RH WIND       PRES   REMARKS
RUIDOSO        FAIR      52  25  35 NW10      30.19F

$$
NMZ527>531-240900-
NORTHEAST HIGHLANDS/NORTHEAST PLAINS

CITY           SKY/WX    TMP DP  RH WIND       PRES   REMARKS
LAS VEGAS      FAIR      47  20  34 NE7       30.11F
RATON          FAIR      36  28  73 NE9       30.05F WCI  29
CLAYTON        FAIR      45  31  58 W9        29.93F

$$
NMZ532>537-240900-
EASTCENTRAL PLAINS

CITY           SKY/WX    TMP DP  RH WIND       PRES   REMARKS
SANTA ROSA     FAIR      53  30  41 SW5       30.01F
TUCUMCARI      FAIR      46  30  53 SW5       29.94F
CANNON AFB     FAIR      50  29  45 W12       30.01F
CLOVIS AIRPORT FAIR      47  31  53 W12       30.01F

$$
NMZ028-029-538-240900-
SOUTHEAST PLAINS

CITY           SKY/WX    TMP DP  RH WIND       PRES   REMARKS
ROSWELL        FAIR      45  28  51 W7        30.03F
ARTESIA        FAIR      48  28  46 W10       30.03F
CARLSBAD       FAIR      41  34  76 VRB3      30.02F
HOBBS          FAIR      43  30  61 W5        30.04F


$$




USA.gov is the U.S. government's official web portal to all federal, state and local government web resources and services.